Regional Weather Roundup
Issued by NWS Mobile, AL

Home | Current Version | Previous Version | Text Only | Print | Product List | Glossary On
Versions: 1 2 3 4 5 6 7 8 9 10 11 12 13 14 15 16 17 18 19 20 21 22 23 24 25 26 27 28 29 30 31 32 33 34 35 36 37 38 39 40 41 42 43
000
ASUS44 KMOB 270910
RWRMOB
REGIONAL WEATHER ROUNDUP
NATIONAL WEATHER SERVICE MOBILE AL
300 AM CST SAT DEC 27 2014

NOTE: "FAIR" INDICATES FEW OR NO CLOUDS BELOW 12,000 FEET WITH NO
      SIGNIFICANT WEATHER AND/OR OBSTRUCTIONS TO VISIBILITY.

  * THESE STATIONS ARE PART OF THE UNIVERSITY OF SOUTH ALABAMA
    MESONET AND ARE NOT UNDER NWS OR FAA QUALITY CONTROL.

ALZ061>064-271000-
COASTAL ALABAMA

CITY           SKY/WX    TMP DP  RH WIND       PRES   REMARKS
MOBILE REG APT CLOUDY    56  48  74 E6        30.18S
BROOKLEY FIELD CLOUDY    57  50  77 E7        30.19F
USA CAMPUS*      N/A     57  48  72 NE5       30.18S
DOG RIVER*     NOT AVBL


CITY           SKY/WX    TMP DP  RH WIND       PRES   REMARKS
MOUNT VERNON*  NOT AVBL
SARALAND*      NOT AVBL
BAY MINETTE*   NOT AVBL
LOXLEY*          N/A     52  45  76 NE6       30.18S
ROBERTSDALE*     N/A     52  46  82 CALM      30.18S
FAIRHOPE*        N/A     54  48  82 E7        30.18R
ELBERTA*         N/A     52  50  93 N3        30.17R
FOLEY*           N/A     48  43  81 N3        30.19R
GRAND BAY*       N/A     57  52  82 SE5       30.16R
DAUPHIN ISLND* NOT AVBL
BON SCOUR NWR* NOT AVBL
GULF SHORES    CLEAR     60  56  85 E8        30.17S

$$

ALZ051>060-271000-
INTERIOR SOUTHWEST AND SOUTH CENTRAL ALABAMA

CITY           SKY/WX    TMP DP  RH WIND       PRES   REMARKS
GREENVILLE     CLEAR     47  39  74 SE5       30.21S
EVERGREEN      MOCLDY    44  42  93 CALM      30.22R
CASTLEBERRY*   NOT AVBL
ATMORE*          N/A     50  45  81 CALM      30.23S
DIXIE*           N/A     46  43  87 CALM      30.18R
ANDALUSIA/OPP  CLEAR     50  41  71 SE3       30.22R
ANDALUSIA*       N/A     46  41  81 E8        30.21R
FLORALA APT    CLEAR     45  41  86 CALM      30.23S
FLORALA*         N/A     48  43  81 N3        30.19R

$$

FLZ001>006-271000-
WESTERN FLORIDA PANHANDLE

CITY           SKY/WX    TMP DP  RH WIND       PRES   REMARKS
PENSACOLA      CLEAR     55  49  80 E6        30.18F
NAS PENSACOLA  NOT AVBL
MILTON         CLEAR     49  42  77 CALM      30.21R
WHTNG S FIELD  CLEAR     50  42  74 NE5       30.21R


CITY           SKY/WX    TMP DP  RH WIND       PRES   REMARKS
WALNUT HILL*   NOT AVBL
JAY*           NOT AVBL
DUKE FIELD     CLEAR     50  42  75 E1        30.20S
CRESTVIEW      CLEAR     42  41  96 CALM      30.22R
VALPARAISO     PTCLDY    51  44  76 E3        30.21R
DESTIN         CLEAR     53  43  68 E7        30.20S

$$

MSZ076-079-271000-
INTERIOR SOUTHEAST MISSISSIPPI

CITY           SKY/WX    TMP DP  RH WIND       PRES   REMARKS
LEAKESVILLE*   NOT AVBL
AGRICOLA*      NOT AVBL

$$

MARINE OBSERVATIONS

STATION/POSITION TIME  TEMP    WIND        PRES    WAVE
                       AIR SEA DIR/SP/G            HT/PER
                 (UTC) (F)     (DEG/KT/KT) (MB)    (FT/S)
PASCAGOULA       0900   62      90/  6/  9 1021.0S
PETIT BOIS ISLND 0900   64     100/  9/ 12 1021.2S
GRAND BAY        0800   58      80/  8     1022.0S
KATRINA CUT      0800   62     120/ 13     1022.4R
CEDAR POINT      0800   58      60/  6     1021.7R
E DAUPHIN ISLAND 0800   64     120/ 15/ 17 1020.9F
MIDDLE BAY LIGHT 0800   57      80/  9     1021.0R
USCG MOBILE BAY  0900   57 58   90/  6/  6 1020.8R
STATE DOCKS      0900   56 56              1021.7R
MEAHER PARK      0800   56      80/  3     1022.4S
WEEKS BAY        0800   54                   N/A
FORT MORGAN      0900   65     140/ 18/ 20 1021.1R
12 S ORANGE BCH  0900   67 68  120/ 16/ 19 1020.8R   4/ 5
PENSACOLA BAY    0900   58 59   70/  4/  7 1022.2R
64 S DAUPHIN ISL 0900   70 74  130/ 21/ 25 1019.9F   5/ 6

$$

SELECTED LOCATIONS ACROSS THE REGION

CITY           SKY/WX    TMP DP  RH WIND       PRES   REMARKS
NEW ORLEANS    CLOUDY    66  61  84 W14       30.14R
GULFPORT       CLOUDY    63  57  81 E17       30.13F
PASCAGOULA AP  CLOUDY    57  51  80 E3        30.17S
PASCAGOULA*      N/A     59  54  82 E5        30.16S
HATTIESBURG    CLOUDY    56  47  71 E3        30.17S
LAUREL         CLOUDY    54  46  76 NE7       30.18R
MERIDIAN       RAIN      50  45  83 S6        30.21R
JACKSON        LGT RAIN  54  51  90 SE9       30.17R
MONTGOMERY     CLEAR     44  38  79 SE7       30.23S
TROY           CLEAR     38  36  92 CALM      30.23F
KINSTON*       NOT AVBL
GENEVA*          N/A     48  43  81 SE5       30.24F
ASHFORD*         N/A     46  41  81 E8        30.21R
DOTHAN         CLEAR     47  41  80 E3        30.27R
PANAMA CITY    PTCLDY    50  42  74 E7          N/A

$$




USA.gov is the U.S. government's official web portal to all federal, state and local government web resources and services.